Hourly Weather Roundup
Issued by NWS Central Illinois

Home | Current Version | Previous Version | Text Only | Print | Product List | Glossary On
Versions: 1 2 3 4 5 6 7 8 9 10 11 12 13 14 15 16 17 18 19 20 21 22 23 24 25 26 27 28 29 30 31 32 33 34 35 36 37 38 39 40 41 42 43 44 45 46 47 48 49 50
000
NZUS43 KILX 131710
HWRILX

AREA WEATHER ROUNDUP
NATIONAL WEATHER SERVICE, LINCOLN IL
1200 PM CDT SUN JUL 13 2014


CITY           SKY/WX    TMP DP  RH WIND       PRES   REMARKS
BLOOMINGTON    PTSUNNY   78  67  68 N9        29.99S HX  80
CHAMPAIGN      PTSUNNY   79  71  76 W7        29.98S HX  82
DECATUR        PTSUNNY   78  71  79 W7        29.98F HX  80
EFFINGHAM      PTSUNNY   86  69  56 W7        29.98F HX  89
FLORA          PTSUNNY   85  71  61 W9        29.99S HX  90
GALESBURG      MOSUNNY   78  69  74 NW7       29.99F HX  80
JACKSONVILLE   CLOUDY    81  72  74 NW3       29.99S HX  85
LACON          PTSUNNY   75  67  75 N6        29.97F
LAWRENCEVILLE  CLOUDY    85  72  65 W13       29.98R HX  91
LITCHFIELD     CLOUDY    81  72  74 W10       29.99R HX  85
$$


CITY           SKY/WX    TMP DP  RH WIND       PRES   REMARKS
LINCOLN        PTSUNNY   80  69  70 NW5       29.95S HX  83
MACOMB         CLOUDY    73  69  87 NW12      30.01S
MATTOON        CLOUDY    80  72  76 W12       29.99R HX  84
MT CARMEL AP   PTSUNNY   90  75  62 W8        29.98S HX 100
OLNEY-NOBLE AP CLOUDY    86  73  66 W6        29.99S HX  93
PARIS          CLOUDY    78  73  83 W6        29.99S HX  80
PEORIA         CLOUDY    76  66  71 NW5       29.98F
PONTIAC        PTSUNNY   75  70  83 NW6       29.97F
RANTOUL        PTSUNNY   80  66  62 NW9       29.98R HX  82
ROBINSON       PTSUNNY   85  75  70 W9        29.99S HX  93
SPRINGFIELD    CLOUDY    81  72  74 N5        29.97F HX  85
TAYLORVILLE    CLOUDY    73  72  94 CALM      29.98F
$$

...REGIONAL REPORTS...


CITY           SKY/WX    TMP DP  RH WIND       PRES   REMARKS
CHICAGO O`HARE MOSUNNY   79  63  57 W10       29.94S HX  80
KANKAKEE       PTSUNNY   75  69  80 NW5       29.96S
MOLINE         SUNNY     79  68  69 W6        29.97F HX  81
MOUNT VERNON   PTSUNNY   90  72  55 SW12      29.99F HX  96
PITTSFIELD     CLOUDY    79  71  76 NW5       30.00F HX  82
QUINCY         PTSUNNY   79  70  74 W6        29.99S HX  82
ROCKFORD       MOSUNNY   78  65  63 W9        29.96F HX  80
$$


CITY           SKY/WX    TMP DP  RH WIND       PRES   REMARKS
BURLINGTON     MOSUNNY   76  69  79 N7        29.99F
CEDAR RAPIDS   PTSUNNY   78  68  71 W9        29.98F HX  80
DES MOINES     MOSUNNY   84  65  52 NW10      30.01S HX  86
KIRKSVILLE     MOSUNNY   80  69  69 VRB6      30.02F HX  83
OTTUMWA        SUNNY     80  69  69 VRB6      30.00F HX  83
ST LOUIS       PTSUNNY   90  72  55 W8        29.99S HX  97
$$


CITY           SKY/WX    TMP DP  RH WIND       PRES   REMARKS
TERRE HAUTE    PTSUNNY   82  71  69 W9        29.99S HX  86
EVANSVILLE     MOSUNNY   88  73  61 S16       29.99F HX  95
INDIANAPOLIS   CLOUDY    81  69  67 SW16      29.97R HX  84
LAFAYETTE      PTSUNNY   79  69  71 NW10      29.95S HX  81
MADISON        PTSUNNY   78  66  66 NW12G18   29.92F HX  80
MILWAUKEE      MOSUNNY   80  60  50 W14       29.91S HX  81
$$




USA.gov is the U.S. government's official web portal to all federal, state and local government web resources and services.